Weather History for Flagstaff, AZ

Change the Weather History Date:

Tuesday, February 19, 2013

  Actual Average Record
Temperature  
Mean Temperature 31 °F 32 °F  
Max Temperature 43 °F 45 °F 65 °F (1981)
Min Temperature 19 °F 20 °F -6 °F (1942)
Degree Days  
Heating Degree Days 34 32  
Month to date heating degree days 675 637  
Since 1 July heating degree days 4512 4553  
Cooling Degree Days 0 0  
Month to date cooling degree days 0 0  
Year to date cooling degree days 0 0  
Moisture  
Dew Point 15 °F    
Average Humidity 57    
Maximum Humidity 84    
Minimum Humidity 30    
Precipitation  
Precipitation 0.00 in 0.08 in 3.93 in (1993)
Month to date precipitation 0.50 1.43  
Year to date precipitation 3.14 3.48  
Snow  
Snow 0.00 in 0.80 in 12.10 in (2011)
Month to date snowfall 13.3 14.8  
Since 1 July snowfall 46.3 67.1  
Snow Depth 0.00 in    
Sea Level Pressure  
Sea Level Pressure 29.78 in    
Wind  
Wind Speed 11 mph (SW)    
Max Wind Speed 28 mph    
Max Gust Speed 38 mph    
Visibility 10 miles    
Events      
T = Trace of Precipitation, MM = Missing Value Source: NWS Daily Summary

Daily Weather History Graph

Daily Weather History Graph

Search for Another Location

Airport:

Trip Planner

Search our weather history database for the weather conditions in past years. The results will help you decide how hot, cold, wet, or windy it might be!

Date:

Astronomy

Feb. 19, 2013 Rise Set
Actual Time 7:08 AM MST 6:13 PM MST
Civil Twilight 6:42 AM MST 6:39 PM MST
Nautical Twilight 6:12 AM MST 7:08 PM MST
Astronomical Twilight 5:43 AM MST 7:38 PM MST
Moon 12:54 PM MST (2/19) 2:36 AM MST (2/19)
Length of Visible Light 11h 56m
Length of Day
11h 05m
Waxing Gibbous, 68% of the Moon is Illuminated
Feb 19
Waxing Gibbous
Feb 25
Full
Mar 4
Last Quarter
Mar 11
New
Mar 19
First Quarter

Hourly Weather History & Observations

Time (MST) Temp. Windchill Dew Point Humidity Pressure Visibility Wind Dir Wind Speed Gust Speed Precip Events Conditions
12:57 AM 21.9 °F - 16.0 °F 78% 29.95 in 10.0 mi Calm Calm - N/A   Clear
1:57 AM 19.9 °F - 15.1 °F 81% 29.93 in 10.0 mi Calm Calm - N/A   Clear
2:57 AM 19.0 °F - 14.0 °F 81% 29.91 in 10.0 mi Calm Calm - N/A   Clear
3:57 AM 19.0 °F - 15.1 °F 85% 29.89 in 10.0 mi Calm Calm - N/A   Clear
4:57 AM 19.9 °F - 15.1 °F 81% 29.87 in 10.0 mi Calm Calm - N/A   Clear
5:57 AM 19.9 °F - 15.1 °F 81% 29.88 in 10.0 mi Calm Calm - N/A   Clear
6:57 AM 19.9 °F - 14.0 °F 78% 29.92 in 10.0 mi Calm Calm - N/A   Clear
7:57 AM 21.0 °F - 16.0 °F 81% 29.94 in 10.0 mi Calm Calm - N/A   Clear
8:57 AM 35.1 °F 32.2 °F 19.0 °F 52% 29.87 in 10.0 mi SW 3.5 mph - N/A   Clear
9:57 AM 37.0 °F 27.7 °F 12.9 °F 37% 29.84 in 10.0 mi SSW 16.1 mph 24.2 mph N/A   Clear
10:57 AM 39.0 °F 28.8 °F 12.9 °F 34% 29.83 in 10.0 mi SSW 21.9 mph 31.1 mph N/A   Clear
11:57 AM 39.0 °F 28.3 °F 14.0 °F 36% 29.82 in 10.0 mi SW 24.2 mph 28.8 mph N/A   Clear
12:57 PM 41.0 °F 31.6 °F 17.1 °F 38% 29.77 in 10.0 mi SW 20.7 mph 29.9 mph N/A   Clear
1:57 PM 42.1 °F 34.2 °F 15.1 °F 34% 29.75 in 10.0 mi SSW 16.1 mph 27.6 mph N/A   Clear
2:57 PM 43.0 °F 33.5 °F 15.1 °F 32% 29.72 in 10.0 mi SW 24.2 mph 35.7 mph N/A   Clear
3:57 PM 41.0 °F 32.8 °F 12.9 °F 32% 29.71 in 10.0 mi SSW 16.1 mph 27.6 mph N/A   Clear
5:57 PM 36.0 °F 26.3 °F 12.0 °F 37% 29.69 in 10.0 mi SSW 16.1 mph 24.2 mph N/A   Clear
6:57 PM 35.1 °F 25.9 °F 12.9 °F 40% 29.70 in 10.0 mi SW 13.8 mph - N/A   Clear
7:57 PM 34.0 °F 23.8 °F 12.9 °F 42% 29.69 in 10.0 mi SW 16.1 mph - N/A   Clear
8:57 PM 33.1 °F 23.4 °F 15.1 °F 48% 29.62 in 10.0 mi SW 13.8 mph - N/A   Clear
9:57 PM 33.1 °F 23.4 °F 16.0 °F 50% 29.59 in 10.0 mi SW 13.8 mph - N/A   Clear
10:57 PM 32.0 °F 20.5 °F 21.0 °F 64% 29.55 in 10.0 mi SSW 18.4 mph 28.8 mph N/A   Scattered Clouds
11:57 PM 30.9 °F 19.1 °F 19.0 °F 61% 29.52 in 10.0 mi SSW 18.4 mph 26.5 mph N/A   Clear